This is the latest recevied weather packets stored in our database for station/object KF0WJA. If no packets are shown the sender has not sent any weather packets the latest 10 day(s).
| Time | Temp. | Humidity | Pressure | Rain* | Wind** | Luminosity | Snow |
|---|---|---|---|---|---|---|---|
| 1787383673 | 25° C | 76% | 1019.2 hPa | 0 mm | - | 0 W/m² | - |
| 1787383369 | 25° C | 76% | 1019 hPa | 0 mm | - | 0 W/m² | - |
| 1787383064 | 25° C | 75% | 1019.1 hPa | 0 mm | - | 0 W/m² | - |
| 1787382761 | 25° C | 74% | 1019.1 hPa | 0 mm | - | 0 W/m² | - |
| 1787382459 | 25° C | 74% | 1019.2 hPa | 0 mm | - | 0 W/m² | - |
| 1787382155 | 25.56° C | 73% | 1019.2 hPa | 0 mm | - | 0 W/m² | - |
| 1787381854 | 26.11° C | 71% | 1018.9 hPa | 0 mm | - | 0 W/m² | - |
| 1787381554 | 26.67° C | 69% | 1019.1 hPa | 0 mm | - | 0 W/m² | - |
| 1787381248 | 27.22° C | 67% | 1019.3 hPa | 0 mm | - | 0 W/m² | - |
| 1787380944 | 27.78° C | 66% | 1019 hPa | 0 mm | - | 0 W/m² | - |
| 1787380643 | 27.78° C | 66% | 1019 hPa | 0 mm | - | 0 W/m² | - |
| 1787380339 | 27.78° C | 66% | 1019 hPa | 0 mm | - | 0 W/m² | - |
| 1787380034 | 27.78° C | 66% | 1018.9 hPa | 0 mm | - | 0 W/m² | - |
| 1787379730 | 27.78° C | 65% | 1018.9 hPa | 0 mm | - | 0 W/m² | - |
| 1787379429 | 27.78° C | 65% | 1019 hPa | 0 mm | - | 0 W/m² | - |
| 1787379129 | 27.78° C | 65% | 1018.7 hPa | 0 mm | - | 0 W/m² | - |
| 1787378828 | 28.33° C | 64% | 1018.6 hPa | 0 mm | - | 0 W/m² | - |
| 1787378524 | 28.33° C | 64% | 1018.7 hPa | 0 mm | - | 0 W/m² | - |
| 1787378223 | 27.78° C | 64% | 1018.6 hPa | 0 mm | - | 0 W/m² | - |
| 1787377919 | 28.33° C | 64% | 1018.7 hPa | 0 mm | - | 0 W/m² | - |
| 1787377618 | 28.33° C | 63% | 1018.5 hPa | 0 mm | - | 0 W/m² | - |
| 1787377316 | 28.89° C | 63% | 1018.7 hPa | 0 mm | - | 0 W/m² | - |
| 1787377012 | 28.89° C | 62% | 1018.9 hPa | 0 mm | - | 0 W/m² | - |
| 1787376709 | 28.89° C | 63% | 1018.7 hPa | 0 mm | - | 0 W/m² | - |
| 1787376404 | 28.89° C | 63% | 1018.7 hPa | 0 mm | - | 0 W/m² | - |
* Rain latest hour (hover to see other rain measurements)
** Current wind speed in m/s (hover to see current wind gust speed)